Back to catalog

STARLINK-36068

AliveCommunicationsVLEO
NORAD 66845·PAYLOAD·🇺🇸 United States

Launched Dec 2, 2025 from Vandenberg Space Force Base

Loading…

Next Passes (next 24 hours)

TLE

FreshSource: CelesTrak SupGP

Epoch: Sep 14, 2026, 22:27 UTC

1 66845C 25280AA  26257.93590278 -.00037297  00000+0 -31268-2 0  2579
2 66845  70.0013 217.1560 0003185 256.0304 208.6414 14.98334159    14

Track STARLINK-36068 in real time with AllMySat

Download on the App Store